Weather in Ishim

Russia / Tyumen Oblast     56°06′37″N   69°28′46″E
temp.,
°C
wind,
m/s
gust,
m/s
humid.,
%
clouds,
%
prec.,
mm/h
press.,
hPa
HPBL,
m
8 august, mon
mon823:00+17ne356886 0.1 101671
02:00+15ne347562 0.0 101649
05:00+13nne367599 0.0 1016108
08:00+18ne4763100 0.0 1017340
11:00+22ne5651100 0.0 10171086
14:00+24ne564417 0.0 10161738
17:00+23ne5746100 0.0 10161901
20:00+18nne35686 0.0 101767
9 august, tue
tue923:00+15ne347521 0.0 101747
02:00+14nne347760 0.0 101753
05:00+13nne348033 0.0 101751
08:00+18ne356059 0.0 1017281
11:00+23ne4547100 0.0 10171056
14:00+25ne464387 0.0 10161360
17:00+25nne4548100 0.0 10151449
20:00+16nw348661 3.2 101554
10 august, wed
wed1023:00+16nnw229253 4.4 101648
02:00+15nnw229361 0.4 101413
05:00+15n33975 0.4 101557
08:00+19nne238445 0.0 1015291
11:00+24nne34606 0.0 1015895
14:00+26nne45585 0.4 10141427
17:00+24nne35705 3.6 1014607
20:00+19ne0193100 8.8 101613
11 august, thu
thu1123:00+17nne359254 8.9 101693
02:00+16nne399587 0.0 1016195
05:00+14nne36955 0.0 1017121
08:00+17ne35815 0.0 1018256
11:00+22ne34600 0.0 1017766
14:00+24ne32540 0.0 10171345
17:00+24ne21530 0.0 10161258
20:00+19ene22741 0.0 101611
12 august, fri
fri1223:00+16sse34820 0.0 101552
02:00+15sse49830 0.0 1014150
05:00+15s38853 0.0 1013151
08:00+20ssw467299 0.1 1012379
11:00+22ssw5868100 0.7 1010922
14:00+23wsw5765100 0.1 10081143
17:00+19w6108490 4.4 1008421
20:00+16w34886 0.9 100861